| time (UTC) | temp F | wind direction | speed MPH | gust MPH | rain 1hr in | rain 24hr in | rain mn in | humidity % | barometer mb |
| 20260506001519 | 72 | 302 | 7.0 | 13.0 | 0.00 | 0.00 | 0.00 | 31 | 1013.0 |
| 20260506001016 | 73 | 332 | 7.0 | 12.0 | 0.00 | 0.00 | 0.00 | 31 | 1012.9 |
| 20260506000514 | 73 | 332 | 7.0 | 12.0 | 0.00 | 0.00 | 0.00 | 31 | 1012.9 |
| 20260506000011 | 74 | 308 | 7.0 | 10.0 | 0.00 | 0.00 | 0.00 | 31 | 1012.9 |
| 20260505235509 | 73 | 299 | 11.0 | 17.0 | 0.00 | 0.00 | 0.00 | 31 | 1013.0 |
| 20260505235005 | 74 | 1 | 2.0 | 9.0 | 0.00 | 0.00 | 0.00 | 31 | 1012.7 |
| 20260505234502 | 74 | 354 | 6.0 | 9.0 | 0.00 | 0.00 | 0.00 | 30 | 1012.7 |
| 20260505233959 | 74 | 349 | 3.0 | 12.0 | 0.00 | 0.00 | 0.00 | 31 | 1012.9 |
| 20260505233456 | 74 | 305 | 9.0 | 14.0 | 0.00 | 0.00 | 0.00 | 30 | 1012.6 |
| 20260505232954 | 74 | 258 | 4.0 | 15.0 | 0.00 | 0.00 | 0.00 | 30 | 1012.7 |
| 20260505232452 | 74 | 16 | 4.0 | 14.0 | 0.00 | 0.00 | 0.00 | 30 | 1012.6 |
| 20260505231948 | 74 | 309 | 6.0 | 15.0 | 0.00 | 0.00 | 0.00 | 29 | 1012.7 |
| 20260505231446 | 75 | 335 | 9.0 | 14.0 | 0.00 | 0.00 | 0.00 | 29 | 1012.6 |
| 20260505230943 | 75 | 340 | 3.0 | 13.0 | 0.00 | 0.00 | 0.00 | 27 | 1012.6 |
| 20260505230441 | 74 | 279 | 5.0 | 16.0 | 0.00 | 0.00 | 0.00 | 25 | 1012.9 |
| 20260505225937 | 74 | 286 | 15.0 | 18.0 | 0.00 | 0.00 | 0.00 | 28 | 1012.5 |
| 20260505225435 | 74 | 323 | 12.0 | 16.0 | 0.00 | 0.00 | 0.00 | 28 | 1012.7 |
| 20260505224930 | 74 | 337 | 9.0 | 16.0 | 0.00 | 0.00 | 0.00 | 27 | 1012.7 |
| 20260505224427 | 76 | 300 | 6.0 | 10.0 | 0.00 | 0.00 | 0.00 | 27 | 1012.6 |
| 20260505223924 | 75 | 353 | 6.0 | 12.0 | 0.00 | 0.00 | 0.00 | 27 | 1012.6 |
| 20260505223421 | 74 | 302 | 8.0 | 16.0 | 0.00 | 0.00 | 0.00 | 28 | 1012.5 |
| 20260505222917 | 75 | 306 | 5.0 | 10.0 | 0.00 | 0.00 | 0.00 | 27 | 1012.7 |
| 20260505222413 | 75 | 317 | 6.0 | 13.0 | 0.00 | 0.00 | 0.00 | 28 | 1012.5 |
| 20260505221910 | 76 | 309 | 5.0 | 8.0 | 0.00 | 0.00 | 0.00 | 28 | 1012.7 |
| 20260505221407 | 75 | 291 | 5.0 | 16.0 | 0.00 | 0.00 | 0.00 | 28 | 1012.5 |
| 20260505220904 | 75 | 309 | 6.0 | 12.0 | 0.00 | 0.00 | 0.00 | 29 | 1012.6 |
| 20260505220401 | 75 | 333 | 10.0 | 13.0 | 0.00 | 0.00 | 0.00 | 28 | 1012.5 |
| 20260505215858 | 76 | 354 | 3.0 | 9.0 | 0.00 | 0.00 | 0.00 | 29 | 1012.6 |
| 20260505215356 | 77 | 327 | 6.0 | 8.0 | 0.00 | 0.00 | 0.00 | 28 | 1012.6 |
| 20260505214855 | 75 | 345 | 8.0 | 13.0 | 0.00 | 0.00 | 0.00 | 29 | 1012.7 |
| 20260505214352 | 75 | 290 | 3.0 | 13.0 | 0.00 | 0.00 | 0.00 | 28 | 1012.7 |
| 20260505213849 | 75 | 325 | 5.0 | 15.0 | 0.00 | 0.00 | 0.00 | 26 | 1012.9 |
| 20260505213347 | 75 | 304 | 7.0 | 13.0 | 0.00 | 0.00 | 0.00 | 28 | 1012.5 |
| 20260505212842 | 75 | 280 | 4.0 | 12.0 | 0.00 | 0.00 | 0.00 | 29 | 1012.5 |
| 20260505212340 | 75 | 288 | 5.0 | 11.0 | 0.00 | 0.00 | 0.00 | 29 | 1012.7 |
| 20260505211836 | 75 | 319 | 6.0 | 15.0 | 0.00 | 0.00 | 0.00 | 30 | 1012.6 |
| 20260505211334 | 75 | 285 | 3.0 | 13.0 | 0.00 | 0.00 | 0.00 | 31 | 1012.5 |
| 20260505210830 | 75 | 296 | 10.0 | 14.0 | 0.00 | 0.00 | 0.00 | 30 | 1012.6 |
| 20260505210327 | 74 | 345 | 3.0 | 9.0 | 0.00 | 0.00 | 0.00 | 31 | 1012.9 |
| 20260505205823 | 75 | 314 | 4.0 | 12.0 | 0.00 | 0.00 | 0.00 | 31 | 1012.9 |
| 20260505205322 | 75 | 266 | 4.0 | 9.0 | 0.00 | 0.00 | 0.00 | 31 | 1012.7 |
| 20260505204818 | 74 | 330 | 8.0 | 14.0 | 0.00 | 0.00 | 0.00 | 30 | 1013.0 |
| 20260505204316 | 75 | 313 | 11.0 | 15.0 | 0.00 | 0.00 | 0.00 | 31 | 1012.7 |
| 20260505203813 | 75 | 297 | 7.0 | 14.0 | 0.00 | 0.00 | 0.00 | 31 | 1012.7 |
| 20260505203310 | 74 | 285 | 3.0 | 13.0 | 0.00 | 0.00 | 0.00 | 33 | 1012.9 |
| 20260505202806 | 73 | 337 | 3.0 | 12.0 | 0.00 | 0.00 | 0.00 | 34 | 1013.0 |
| 20260505202305 | 74 | 319 | 9.0 | 10.0 | 0.00 | 0.00 | 0.00 | 32 | 1012.9 |
| 20260505201759 | 74 | 312 | 10.0 | 12.0 | 0.00 | 0.00 | 0.00 | 32 | 1012.7 |
| 20260505201256 | 75 | 310 | 4.0 | 16.0 | 0.00 | 0.00 | 0.00 | 34 | 1012.7 |
| 20260505200755 | 75 | 326 | 7.0 | 11.0 | 0.00 | 0.00 | 0.00 | 33 | 1012.9 |
| 20260505200251 | 74 | 323 | 3.0 | 14.0 | 0.00 | 0.00 | 0.00 | 35 | 1012.7 |
| 20260505195746 | 73 | 332 | 8.0 | 14.0 | 0.00 | 0.00 | 0.00 | 35 | 1012.9 |
| 20260505195245 | 75 | 291 | 4.0 | 13.0 | 0.00 | 0.00 | 0.00 | 34 | 1012.7 |
| 20260505194742 | 75 | 326 | 9.0 | 18.0 | 0.00 | 0.00 | 0.00 | 34 | 1013.0 |
| 20260505194238 | 72 | 20 | 7.0 | 15.0 | 0.00 | 0.00 | 0.00 | 35 | 1012.7 |
| 20260505193733 | 73 | 353 | 13.0 | 15.0 | 0.00 | 0.00 | 0.00 | 36 | 1012.7 |
| 20260505193231 | 74 | 34 | 6.0 | 10.0 | 0.00 | 0.00 | 0.00 | 35 | 1013.0 |
| 20260505192725 | 74 | 355 | 10.0 | 13.0 | 0.00 | 0.00 | 0.00 | 34 | 1012.7 |
| 20260505192222 | 73 | 4 | 0.0 | 7.0 | 0.00 | 0.00 | 0.00 | 34 | 1012.7 |
| 20260505191720 | 73 | 260 | 1.0 | 4.0 | 0.00 | 0.00 | 0.00 | 38 | 1012.9 |
| 20260505191218 | 72 | 259 | 3.0 | 5.0 | 0.00 | 0.00 | 0.00 | 39 | 1013.1 |
| 20260505190714 | 72 | 243 | 5.0 | 8.0 | 0.00 | 0.00 | 0.00 | 39 | 1012.9 |
| 20260505190213 | 73 | 257 | 5.0 | 9.0 | 0.00 | 0.00 | 0.00 | 40 | 1013.1 |
| 20260505185710 | 71 | 254 | 8.0 | 10.0 | 0.00 | 0.00 | 0.00 | 42 | 1013.0 |
| 20260505185207 | 71 | 180 | 2.0 | 6.0 | 0.00 | 0.00 | 0.00 | 43 | 1012.7 |
| 20260505184703 | 70 | 217 | 5.0 | 8.0 | 0.00 | 0.00 | 0.00 | 45 | 1013.1 |
| 20260505184201 | 69 | 204 | 3.0 | 7.0 | 0.00 | 0.00 | 0.00 | 45 | 1013.0 |
| 20260505183657 | 69 | 186 | 5.0 | 8.0 | 0.00 | 0.00 | 0.00 | 47 | 1013.1 |
| 20260505183155 | 70 | 200 | 5.0 | 8.0 | 0.00 | 0.00 | 0.00 | 46 | 1013.2 |
| 20260505182650 | 68 | 224 | 5.0 | 6.0 | 0.00 | 0.00 | 0.00 | 49 | 1013.3 |
| 20260505182148 | 68 | 206 | 2.0 | 5.0 | 0.00 | 0.00 | 0.00 | 51 | 1013.2 |
| 20260505181644 | 67 | 204 | 6.0 | 7.0 | 0.00 | 0.00 | 0.00 | 49 | 1013.3 |
| 20260505181142 | 68 | 168 | 1.0 | 7.0 | 0.00 | 0.00 | 0.00 | 48 | 1013.4 |
| 20260505180638 | 66 | 208 | 3.0 | 7.0 | 0.00 | 0.00 | 0.00 | 49 | 1013.6 |
| 20260505180135 | 66 | 167 | 2.0 | 7.0 | 0.00 | 0.00 | 0.00 | 49 | 1013.2 |
| 20260505175630 | 66 | 137 | 3.0 | 5.0 | 0.00 | 0.00 | 0.00 | 47 | 1013.6 |
| 20260505175122 | 66 | 179 | 2.0 | 4.0 | 0.00 | 0.00 | 0.00 | 49 | 1013.4 |
| 20260505174618 | 65 | 201 | 4.0 | 9.0 | 0.00 | 0.00 | 0.00 | 50 | 1013.5 |
| 20260505174115 | 65 | 169 | 1.0 | 5.0 | 0.00 | 0.00 | 0.00 | 51 | 1013.6 |
| 20260505173612 | 65 | 213 | 3.0 | 4.0 | 0.00 | 0.00 | 0.00 | 52 | 1013.7 |
| 20260505173108 | 65 | 114 | 1.0 | 5.0 | 0.00 | 0.00 | 0.00 | 55 | 1013.4 |
| 20260505172606 | 64 | 202 | 5.0 | 6.0 | 0.00 | 0.00 | 0.00 | 54 | 1013.6 |
| 20260505172102 | 64 | 171 | 1.0 | 6.0 | 0.00 | 0.00 | 0.00 | 54 | 1013.7 |
| 20260505171556 | 64 | 155 | 2.0 | 4.0 | 0.00 | 0.00 | 0.00 | 54 | 1013.5 |
| 20260505171054 | 64 | 136 | 4.0 | 5.0 | 0.00 | 0.00 | 0.00 | 54 | 1013.7 |
| 20260505170551 | 63 | 184 | 3.0 | 4.0 | 0.00 | 0.00 | 0.00 | 55 | 1013.5 |
| 20260505170048 | 63 | 139 | 6.0 | 7.0 | 0.00 | 0.00 | 0.00 | 53 | 1013.7 |
| 20260505165543 | 63 | 108 | 2.0 | 4.0 | 0.00 | 0.00 | 0.00 | 53 | 1013.6 |
| 20260505165039 | 62 | 144 | 2.0 | 4.0 | 0.00 | 0.00 | 0.00 | 54 | 1014.0 |
| 20260505164535 | 62 | 130 | 4.0 | 4.0 | 0.00 | 0.00 | 0.00 | 53 | 1014.1 |
| 20260505164033 | 62 | 147 | 2.0 | 5.0 | 0.00 | 0.00 | 0.00 | 54 | 1013.9 |
| 20260505163531 | 61 | 135 | 5.0 | 5.0 | 0.00 | 0.00 | 0.00 | 54 | 1013.6 |
| 20260505163027 | 61 | 173 | 2.0 | 5.0 | 0.00 | 0.00 | 0.00 | 54 | 1013.9 |
| 20260505162521 | 60 | 157 | 1.0 | 4.0 | 0.00 | 0.00 | 0.00 | 56 | 1013.9 |
| 20260505162018 | 60 | 180 | 3.0 | 3.0 | 0.00 | 0.00 | 0.00 | 54 | 1013.9 |
| 20260505161514 | 60 | 172 | 2.0 | 8.0 | 0.00 | 0.00 | 0.00 | 54 | 1013.7 |
| 20260505161012 | 61 | 185 | 1.0 | 3.0 | 0.00 | 0.00 | 0.00 | 53 | 1013.7 |
| 20260505160510 | 59 | 107 | 0.0 | 5.0 | 0.00 | 0.00 | 0.00 | 54 | 1013.6 |
| 20260505152946 | 58 | 106 | 2.0 | 4.0 | 0.00 | 0.00 | 0.00 | 54 | 1013.6 |
| 20260505152443 | 57 | 148 | 2.0 | 4.0 | 0.00 | 0.00 | 0.00 | 56 | 1013.9 |
| 20260505151943 | 56 | 161 | 1.0 | 4.0 | 0.00 | 0.00 | 0.00 | 58 | 1013.5 |
| 20260505151434 | 56 | 171 | 0.0 | 4.0 | 0.00 | 0.00 | 0.00 | 58 | 1013.6 |
| 20260505150931 | 56 | 117 | 2.0 | 3.0 | 0.00 | 0.00 | 0.00 | 57 | 1013.6 |
| 20260505150428 | 56 | 98 | 2.0 | 3.0 | 0.00 | 0.00 | 0.00 | 58 | 1013.6 |
| 20260505140357 | 46 | 47 | 3.0 | 4.0 | 0.00 | 0.00 | 0.00 | 78 | 1013.5 |
| 20260505124812 | 39 | 50 | 2.0 | 3.0 | 0.00 | 0.00 | 0.00 | 88 | 1012.9 |
| 20260505124308 | 39 | 80 | 2.0 | 4.0 | 0.00 | 0.00 | 0.00 | 87 | 1012.6 |
| 20260505123804 | 39 | 96 | 2.0 | 4.0 | 0.00 | 0.00 | 0.00 | 87 | 1012.7 |
| 20260505123300 | 39 | 67 | 3.0 | 4.0 | 0.00 | 0.00 | 0.00 | 88 | 1012.5 |
| 20260505122756 | 40 | 96 | 2.0 | 4.0 | 0.00 | 0.00 | 0.00 | 87 | 1012.6 |
| 20260505122254 | 39 | 63 | 3.0 | 4.0 | 0.00 | 0.00 | 0.00 | 87 | 1012.6 |
| 20260505121750 | 39 | 50 | 3.0 | 4.0 | 0.00 | 0.00 | 0.00 | 88 | 1012.5 |
| 20260505121248 | 39 | 56 | 3.0 | 3.0 | 0.00 | 0.00 | 0.00 | 87 | 1012.5 |
| 20260505120744 | 39 | 97 | 2.0 | 3.0 | 0.00 | 0.00 | 0.00 | 87 | 1012.6 |
| 20260505120240 | 39 | 92 | 2.0 | 3.0 | 0.00 | 0.00 | 0.00 | 86 | 1012.3 |
| 20260505115739 | 40 | 68 | 1.0 | 2.0 | 0.00 | 0.00 | 0.00 | 85 | 1012.3 |
| 20260505115237 | 41 | 102 | 3.0 | 4.0 | 0.00 | 0.00 | 0.00 | 84 | 1012.4 |
| 20260505114734 | 41 | 98 | 2.0 | 3.0 | 0.00 | 0.00 | 0.00 | 84 | 1012.2 |
| 20260505114229 | 40 | 84 | 4.0 | 4.0 | 0.00 | 0.00 | 0.00 | 85 | 1012.3 |
| 20260505113726 | 41 | 91 | 4.0 | 4.0 | 0.00 | 0.00 | 0.00 | 84 | 1012.3 |
| 20260505113223 | 41 | 56 | 3.0 | 4.0 | 0.00 | 0.00 | 0.00 | 84 | 1012.5 |
| 20260505112719 | 41 | 44 | 2.0 | 4.0 | 0.00 | 0.00 | 0.00 | 84 | 1012.2 |
| 20260505112217 | 41 | 21 | 4.0 | 4.0 | 0.00 | 0.00 | 0.00 | 84 | 1012.1 |
| 20260505111712 | 41 | 59 | 3.0 | 5.0 | 0.00 | 0.00 | 0.00 | 84 | 1012.3 |
| 20260505111208 | 41 | 69 | 3.0 | 4.0 | 0.00 | 0.00 | 0.00 | 84 | 1012.3 |
| 20260505110704 | 41 | 66 | 2.0 | 4.0 | 0.00 | 0.00 | 0.00 | 84 | 1012.3 |
| 20260505110202 | 41 | 42 | 4.0 | 5.0 | 0.00 | 0.00 | 0.00 | 84 | 1012.0 |
| 20260505102137 | 41 | 52 | 2.0 | 2.0 | 0.00 | 0.00 | 0.00 | 84 | 1011.7 |
| 20260505101636 | 41 | 64 | 2.0 | 2.0 | 0.00 | 0.00 | 0.00 | 84 | 1012.0 |
| 20260505101132 | 41 | 84 | 3.0 | 4.0 | 0.00 | 0.00 | 0.00 | 84 | 1011.6 |
| 20260505100628 | 41 | 89 | 3.0 | 3.0 | 0.00 | 0.00 | 0.00 | 83 | 1011.7 |
| 20260505100125 | 41 | 61 | 2.0 | 3.0 | 0.00 | 0.00 | 0.00 | 83 | 1011.7 |
| 20260505095621 | 41 | 103 | 0.0 | 1.0 | 0.00 | 0.00 | 0.00 | 83 | 1012.0 |
| 20260505095118 | 41 | 71 | 2.0 | 4.0 | 0.00 | 0.00 | 0.00 | 82 | 1012.0 |
| 20260505094614 | 42 | 85 | 2.0 | 3.0 | 0.00 | 0.00 | 0.00 | 81 | 1011.7 |
| 20260505094111 | 42 | 100 | 3.0 | 4.0 | 0.00 | 0.00 | 0.00 | 81 | 1011.9 |
| 20260505093607 | 42 | 115 | 5.0 | 5.0 | 0.00 | 0.00 | 0.00 | 79 | 1011.7 |
| 20260505093104 | 44 | 114 | 4.0 | 4.0 | 0.00 | 0.00 | 0.00 | 79 | 1011.7 |
| 20260505092601 | 44 | 8 | 4.0 | 6.0 | 0.00 | 0.00 | 0.00 | 79 | 1011.9 |
| 20260505092100 | 43 | 15 | 3.0 | 3.0 | 0.00 | 0.00 | 0.00 | 80 | 1011.9 |
| 20260505091556 | 43 | 40 | 3.0 | 4.0 | 0.00 | 0.00 | 0.00 | 81 | 1012.0 |
| 20260505091055 | 42 | 44 | 0.0 | 2.0 | 0.00 | 0.00 | 0.00 | 80 | 1011.9 |
| 20260505090552 | 43 | 89 | 2.0 | 2.0 | 0.00 | 0.00 | 0.00 | 79 | 1011.7 |
| 20260505090050 | 43 | 79 | 3.0 | 3.0 | 0.00 | 0.00 | 0.00 | 79 | 1012.0 |
| 20260505085547 | 43 | 94 | 4.0 | 4.0 | 0.00 | 0.00 | 0.00 | 79 | 1011.9 |
| 20260505085046 | 43 | 74 | 2.0 | 2.0 | 0.00 | 0.00 | 0.00 | 79 | 1011.7 |
| 20260505084543 | 44 | 88 | 1.0 | 2.0 | 0.00 | 0.00 | 0.00 | 77 | 1011.9 |
| 20260505084041 | 44 | 79 | 3.0 | 3.0 | 0.00 | 0.00 | 0.00 | 76 | 1011.7 |
| 20260505083538 | 45 | 67 | 2.0 | 2.0 | 0.00 | 0.00 | 0.00 | 75 | 1011.7 |
| 20260505083035 | 45 | 108 | 4.0 | 4.0 | 0.00 | 0.00 | 0.00 | 75 | 1011.9 |
| 20260505082530 | 45 | 87 | 2.0 | 3.0 | 0.00 | 0.00 | 0.00 | 75 | 1011.7 |
| 20260505082027 | 45 | 81 | 2.0 | 3.0 | 0.00 | 0.00 | 0.00 | 74 | 1011.6 |
| 20260505081524 | 45 | 89 | 2.0 | 2.0 | 0.00 | 0.00 | 0.00 | 74 | 1011.7 |
| 20260505081021 | 45 | 52 | 2.0 | 4.0 | 0.00 | 0.00 | 0.00 | 74 | 1011.7 |
| 20260505080517 | 45 | 58 | 3.0 | 4.0 | 0.00 | 0.00 | 0.00 | 74 | 1011.7 |
| 20260505080014 | 46 | 58 | 3.0 | 4.0 | 0.00 | 0.00 | 0.00 | 73 | 1011.6 |
| 20260505075510 | 46 | 35 | 3.0 | 3.0 | 0.00 | 0.00 | 0.00 | 72 | 1011.6 |
| 20260505075007 | 46 | 58 | 2.0 | 3.0 | 0.00 | 0.00 | 0.00 | 72 | 1011.7 |
| 20260505074504 | 46 | 24 | 4.0 | 4.0 | 0.00 | 0.00 | 0.00 | 72 | 1011.7 |
| 20260505074001 | 46 | 46 | 1.0 | 1.0 | 0.00 | 0.00 | 0.00 | 71 | 1011.7 |
| 20260505073459 | 46 | 38 | 2.0 | 2.0 | 0.00 | 0.00 | 0.00 | 72 | 1011.6 |
| 20260505072956 | 46 | 77 | 0.0 | 3.0 | 0.00 | 0.00 | 0.00 | 71 | 1011.7 |
| 20260505072452 | 46 | 65 | 2.0 | 4.0 | 0.00 | 0.00 | 0.00 | 71 | 1011.7 |
| 20260505071948 | 46 | 15 | 3.0 | 4.0 | 0.00 | 0.00 | 0.00 | 71 | 1011.7 |
| 20260505071444 | 47 | 41 | 2.0 | 4.0 | 0.00 | 0.00 | 0.00 | 70 | 1011.7 |
| 20260505070943 | 47 | 358 | 2.0 | 3.0 | 0.00 | 0.00 | 0.00 | 71 | 1011.5 |
| 20260505070439 | 47 | 26 | 4.0 | 4.0 | 0.00 | 0.00 | 0.00 | 70 | 1011.4 |
| 20260505065935 | 47 | 48 | 1.0 | 4.0 | 0.00 | 0.00 | 0.00 | 70 | 1011.6 |
| 20260505065431 | 47 | 0 | 2.0 | 5.0 | 0.00 | 0.00 | 0.00 | 69 | 1011.5 |
| 20260505064928 | 47 | 10 | 3.0 | 4.0 | 0.00 | 0.00 | 0.00 | 71 | 1011.6 |
| 20260505064425 | 47 | 7 | 2.0 | 3.0 | 0.00 | 0.00 | 0.00 | 71 | 1011.6 |
| 20260505063923 | 47 | 32 | 3.0 | 5.0 | 0.00 | 0.00 | 0.00 | 70 | 1011.5 |
| 20260505063420 | 48 | 44 | 2.0 | 4.0 | 0.00 | 0.00 | 0.00 | 70 | 1011.5 |
| 20260505062916 | 48 | 63 | 2.0 | 2.0 | 0.00 | 0.00 | 0.00 | 68 | 1011.5 |
| 20260505062414 | 48 | 34 | 4.0 | 4.0 | 0.00 | 0.00 | 0.00 | 69 | 1011.7 |
| 20260505061910 | 48 | 44 | 2.0 | 4.0 | 0.00 | 0.00 | 0.00 | 69 | 1011.5 |
| 20260505061409 | 48 | 12 | 2.0 | 3.0 | 0.00 | 0.00 | 0.00 | 68 | 1011.5 |
| 20260505060906 | 49 | 35 | 3.0 | 3.0 | 0.00 | 0.00 | 0.00 | 67 | 1011.5 |
| 20260505060402 | 49 | 57 | 1.0 | 3.0 | 0.00 | 0.00 | 0.00 | 68 | 1011.4 |
| 20260505055858 | 49 | 26 | 3.0 | 3.0 | 0.00 | 0.00 | 0.00 | 68 | 1011.2 |
| 20260505055355 | 49 | 75 | 2.0 | 4.0 | 0.00 | 0.00 | 0.00 | 67 | 1011.3 |
| 20260505054852 | 50 | 57 | 1.0 | 3.0 | 0.00 | 0.00 | 0.00 | 67 | 1011.2 |
| 20260505054349 | 50 | 15 | 4.0 | 4.0 | 0.00 | 0.00 | 0.00 | 67 | 1011.2 |
| 20260505053847 | 50 | 38 | 2.0 | 2.0 | 0.00 | 0.00 | 0.00 | 67 | 1011.2 |
| 20260505053344 | 50 | 27 | 3.0 | 4.0 | 0.00 | 0.00 | 0.00 | 67 | 1011.1 |
| 20260505052841 | 50 | 61 | 3.0 | 3.0 | 0.00 | 0.00 | 0.00 | 66 | 1011.3 |
| 20260505052337 | 51 | 108 | 2.0 | 4.0 | 0.00 | 0.00 | 0.00 | 63 | 1011.0 |
| 20260505051834 | 51 | 290 | 0.0 | 1.0 | 0.00 | 0.00 | 0.00 | 63 | 1011.1 |
| 20260505051332 | 51 | 72 | 2.0 | 4.0 | 0.00 | 0.00 | 0.00 | 62 | 1011.2 |
| 20260505050830 | 51 | 135 | 0.0 | 1.0 | 0.00 | 0.00 | 0.00 | 62 | 1011.1 |
| 20260505050328 | 52 | 43 | 2.0 | 2.0 | 0.00 | 0.00 | 0.00 | 62 | 1011.0 |
| 20260505041758 | 56 | 29 | 2.0 | 2.0 | 0.00 | 0.00 | 0.00 | 53 | 1010.5 |
| 20260505041255 | 56 | 29 | 2.0 | 4.0 | 0.00 | 0.00 | 0.00 | 51 | 1010.5 |
| 20260505040752 | 57 | 65 | 2.0 | 2.0 | 0.00 | 0.00 | 0.00 | 51 | 1010.3 |
| 20260505040250 | 57 | 50 | 3.0 | 3.0 | 0.00 | 0.00 | 0.00 | 49 | 1010.4 |
| 20260505035747 | 57 | 45 | 2.0 | 2.0 | 0.00 | 0.00 | 0.00 | 50 | 1010.2 |
| 20260505035242 | 58 | 124 | 0.0 | 2.0 | 0.00 | 0.00 | 0.00 | 48 | 1010.1 |
| 20260505034739 | 59 | 38 | 3.0 | 4.0 | 0.00 | 0.00 | 0.00 | 48 | 1010.2 |
| 20260505034236 | 59 | 38 | 2.0 | 2.0 | 0.00 | 0.00 | 0.00 | 46 | 1010.1 |
| 20260505033733 | 60 | 24 | 0.0 | 1.0 | 0.00 | 0.00 | 0.00 | 44 | 1010.3 |
| 20260505033231 | 62 | 322 | 0.0 | 1.0 | 0.00 | 0.00 | 0.00 | 42 | 1010.1 |
| 20260505032729 | 62 | 19 | 2.0 | 3.0 | 0.00 | 0.00 | 0.00 | 41 | 1010.0 |
| 20260505032224 | 63 | 23 | 2.0 | 2.0 | 0.00 | 0.00 | 0.00 | 39 | 1010.0 |
| 20260505031722 | 63 | 22 | 2.0 | 2.0 | 0.00 | 0.00 | 0.00 | 39 | 1009.9 |
| 20260505031218 | 64 | 356 | 2.0 | 4.0 | 0.00 | 0.00 | 0.00 | 37 | 1009.7 |
| 20260505030715 | 65 | 335 | 2.0 | 3.0 | 0.00 | 0.00 | 0.00 | 36 | 1009.5 |
| 20260505030211 | 66 | 334 | 4.0 | 5.0 | 0.00 | 0.00 | 0.00 | 35 | 1009.6 |
| 20260505025707 | 66 | 351 | 4.0 | 4.0 | 0.00 | 0.00 | 0.00 | 34 | 1009.4 |
| 20260505025206 | 66 | 319 | 4.0 | 5.0 | 0.00 | 0.00 | 0.00 | 34 | 1009.3 |
| 20260505024703 | 67 | 317 | 4.0 | 6.0 | 0.00 | 0.00 | 0.00 | 33 | 1009.3 |
| 20260505024200 | 68 | 317 | 2.0 | 5.0 | 0.00 | 0.00 | 0.00 | 32 | 1009.4 |
| 20260505023657 | 69 | 303 | 5.0 | 11.0 | 0.00 | 0.00 | 0.00 | 31 | 1009.4 |
| 20260505023155 | 69 | 343 | 4.0 | 6.0 | 0.00 | 0.00 | 0.00 | 32 | 1009.3 |
| 20260505022652 | 70 | 334 | 3.0 | 10.0 | 0.00 | 0.00 | 0.00 | 31 | 1009.3 |
| 20260505022149 | 70 | 279 | 3.0 | 6.0 | 0.00 | 0.00 | 0.00 | 30 | 1009.1 |
| 20260505021645 | 70 | 333 | 5.0 | 11.0 | 0.00 | 0.00 | 0.00 | 30 | 1009.2 |
| 20260505021143 | 71 | 340 | 8.0 | 11.0 | 0.00 | 0.00 | 0.00 | 30 | 1009.1 |
| 20260505020638 | 71 | 336 | 4.0 | 12.0 | 0.00 | 0.00 | 0.00 | 30 | 1009.1 |
| 20260505020134 | 71 | 336 | 6.0 | 9.0 | 0.00 | 0.00 | 0.00 | 29 | 1009.2 |
| 20260505015632 | 72 | 304 | 5.0 | 10.0 | 0.00 | 0.00 | 0.00 | 29 | 1009.2 |
| 20260505015128 | 72 | 329 | 6.0 | 11.0 | 0.00 | 0.00 | 0.00 | 29 | 1009.3 |
| 20260505014625 | 72 | 283 | 3.0 | 11.0 | 0.00 | 0.00 | 0.00 | 29 | 1009.2 |
| 20260505014122 | 73 | 324 | 10.0 | 11.0 | 0.00 | 0.00 | 0.00 | 29 | 1009.2 |
| 20260505013619 | 73 | 318 | 5.0 | 12.0 | 0.00 | 0.00 | 0.00 | 29 | 1009.2 |
| 20260505013116 | 73 | 339 | 5.0 | 6.0 | 0.00 | 0.00 | 0.00 | 29 | 1009.2 |
| 20260505012614 | 73 | 341 | 7.0 | 11.0 | 0.00 | 0.00 | 0.00 | 28 | 1009.2 |
| 20260505012105 | 73 | 346 | 2.0 | 9.0 | 0.00 | 0.00 | 0.00 | 29 | 1009.2 |
| 20260505011601 | 73 | 288 | 7.0 | 14.0 | 0.00 | 0.00 | 0.00 | 28 | 1009.2 |
| 20260505011058 | 74 | 345 | 4.0 | 10.0 | 0.00 | 0.00 | 0.00 | 28 | 1009.3 |
| 20260505010553 | 74 | 314 | 7.0 | 9.0 | 0.00 | 0.00 | 0.00 | 28 | 1009.3 |
| 20260505010050 | 75 | 319 | 6.0 | 10.0 | 0.00 | 0.00 | 0.00 | 29 | 1009.2 |
| 20260505005546 | 74 | 299 | 11.0 | 14.0 | 0.00 | 0.00 | 0.00 | 28 | 1009.2 |
| 20260505005044 | 74 | 309 | 7.0 | 9.0 | 0.00 | 0.00 | 0.00 | 28 | 1009.2 |
| 20260505004541 | 75 | 324 | 6.0 | 10.0 | 0.00 | 0.00 | 0.00 | 29 | 1009.4 |
| 20260505004038 | 75 | 317 | 6.0 | 10.0 | 0.00 | 0.00 | 0.00 | 29 | 1009.3 |
| 20260505003535 | 74 | 298 | 9.0 | 16.0 | 0.00 | 0.00 | 0.00 | 29 | 1009.2 |
| 20260505003032 | 75 | 312 | 6.0 | 8.0 | 0.00 | 0.00 | 0.00 | 29 | 1009.0 |
| 20260505002526 | 75 | 299 | 6.0 | 13.0 | 0.00 | 0.00 | 0.00 | 29 | 1009.1 |
| 20260505002026 | 75 | 254 | 3.0 | 15.0 | 0.00 | 0.00 | 0.00 | 30 | 1009.2 |